Weather History for Jordan, MT

Change the Weather History Date:

Friday, April 19, 2013

  Actual Average Record
Temperature  
Mean Temperature 37 °F 45 °F  
Max Temperature 42 °F 59 °F 87 °F (1910)
Min Temperature 32 °F 31 °F 9 °F (1941)
Degree Days  
Heating Degree Days 28 20  
Month to date heating degree days 570 429  
Since 1 July heating degree days 7096 7531  
Cooling Degree Days 0 0  
Month to date cooling degree days 0 0  
Year to date cooling degree days 0 0  
Moisture  
Dew Point 32 °F    
Average Humidity 83    
Maximum Humidity 96    
Minimum Humidity 70    
Precipitation  
Precipitation 0.01 in 0.03 in 1.33 in (2005)
Month to date precipitation 1.58 0.55  
Year to date precipitation 2.72 1.55  
Snow  
Snow 0.00 in - - ()
Month to date snowfall 0.0  
Since 1 July snowfall 0.0  
Snow Depth 0.00 in    
Sea Level Pressure  
Sea Level Pressure 29.99 in    
Wind  
Wind Speed 8 mph (East)    
Max Wind Speed 15 mph    
Max Gust Speed 18 mph    
T = Trace of Precipitation, MM = Missing Value Source: NWS Daily Summary

Daily Weather History Graph

Daily Weather History Graph

Search for Another Location

Airport:

Trip Planner

Search our weather history database for the weather conditions in past years. The results will help you decide how hot, cold, wet, or windy it might be!

Date:

Astronomy

Apr. 19, 2013 Rise Set
Actual Time 6:11 AM MDT 8:03 PM MDT
Civil Twilight 5:38 AM MDT 8:35 PM MDT
Nautical Twilight 4:58 AM MDT 9:16 PM MDT
Astronomical Twilight 4:14 AM MDT 10:00 PM MDT
Moon 1:26 PM MDT (4/19) 2:54 AM MDT (4/19)
Length of Visible Light 14h 56m
Length of Day
13h 51m
Waxing Gibbous, 62% of the Moon is Illuminated
Apr 19
Waxing Gibbous
Apr 25
Full
May 2
Last Quarter
May 9
New
May 17
First Quarter

Hourly Weather History & Observations

Time (MDT) Temp. Windchill Dew Point Humidity Pressure Visibility Wind Dir Wind Speed Gust Speed Precip Events Conditions
12:48 AM 33.1 °F - 30.9 °F 92% 30.09 in - Calm Calm - N/A   Unknown
1:48 AM 34.0 °F 28.8 °F 32.0 °F 92% 30.09 in - WNW 5.8 mph - N/A   Unknown
2:48 AM 34.0 °F 28.8 °F 30.9 °F 89% 30.06 in - West 5.8 mph - N/A   Unknown
3:48 AM 35.1 °F 27.4 °F 30.9 °F 85% 30.06 in - North 10.4 mph - N/A   Unknown
4:48 AM 34.0 °F 27.2 °F 30.0 °F 85% 30.04 in - NNE 8.1 mph - N/A   Unknown
5:48 AM 34.0 °F 28.8 °F 28.0 °F 79% 30.04 in - NNE 5.8 mph - N/A   Unknown
6:48 AM 33.1 °F - 27.0 °F 78% 30.05 in - Calm Calm - N/A   Unknown
7:48 AM 34.0 °F 29.8 °F 28.0 °F 79% 30.05 in - NE 4.6 mph - N/A   Unknown
8:48 AM 35.1 °F 31.0 °F 28.0 °F 76% 30.06 in - NE 4.6 mph - N/A   Unknown
9:48 AM 36.0 °F 31.1 °F 28.0 °F 73% 30.06 in - East 5.8 mph - N/A   Unknown
10:48 AM 36.0 °F 33.3 °F 28.0 °F 73% 30.05 in - ESE 3.5 mph - N/A   Unknown
11:48 AM 37.0 °F 30.4 °F 28.9 °F 73% 30.04 in - SSE 9.2 mph - N/A   Unknown
12:48 PM 39.0 °F 32.8 °F 30.9 °F 73% 30.01 in - SE 9.2 mph - N/A   Unknown
1:48 PM 39.0 °F 31.8 °F 34.0 °F 82% 29.99 in - SSE 11.5 mph - N/A   Unknown
2:48 PM 39.0 °F 34.0 °F 34.0 °F 82% 29.98 in - SE 6.9 mph - N/A   Unknown
3:48 PM 41.0 °F 35.8 °F 36.0 °F 82% 29.95 in - SE 8.1 mph - 0.01 in   Unknown
4:48 PM 42.1 °F 37.1 °F 36.0 °F 79% 29.93 in - East 8.1 mph - N/A   Unknown
5:48 PM 42.1 °F 35.7 °F 36.0 °F 79% 29.91 in - ESE 11.5 mph - N/A   Unknown
6:48 PM 41.0 °F 33.9 °F 36.0 °F 82% 29.91 in - East 12.7 mph - N/A   Unknown
7:48 PM 39.9 °F 33.9 °F 35.1 °F 83% 29.90 in - ESE 9.2 mph - N/A   Unknown
8:48 PM 39.0 °F 32.3 °F 34.0 °F 82% 29.90 in - ESE 10.4 mph - N/A   Unknown
9:48 PM 39.0 °F 31.8 °F 34.0 °F 82% 29.88 in - East 11.5 mph - N/A   Unknown
10:48 PM 37.9 °F 32.1 °F 34.0 °F 86% 29.88 in - ESE 8.1 mph - N/A   Unknown
11:48 PM 37.9 °F 32.1 °F 34.0 °F 86% 29.86 in - East 8.1 mph - N/A   Unknown